Location: Ammerl�gen
(47.2167°N, 9.6000°E)
Time: 08:18:42
(UTC+00:00)

RS-15 - Pass Details

Date: 14 December 2021
Orbit: 1882 x 2162 km, 64.8° (Epoch: 17 January)

Event Time Altitude Azimuth Distance (km) Brightness Sun altitude
Exits shadow 05:29:06 15° 307° (NW) 4,150 9.1 -14.7°
Maximum altitude 05:37:48 34° 3° (N) 3,124 8.9 -13.3°
Drops below altitude 10° 05:48:42 10° 65° (ENE) 4,687 10.7 -11.6°
Sets 05:52:49 0° 75° (ENE) 5,689 11.4 -11.0°
